Tracking 19563 objects as of 20-Mar-2019
HD Live streaming from Space Station
objects crossing your sky now

COSMOS 1360

Track COSMOS 1360 now!
10-day predictions
COSMOS 1360 is classified as:


NORAD ID: 13163
Int'l Code: 1982-040D
Perigee: 1,453.5 km
Apogee: 1,488.5 km
Inclination: 74.0 °
Period: 115.2 minutes
Semi major axis: 7841 km
RCS: 0.7161 m2 (medium)
Launch date: May 6, 1982
Source: Commonwealth of Independent States (former USSR) (CIS)
Launch site: PLESETSK MISSILE AND SPACE COMPLEX (PKMTR)
aabbcc
Your satellite tracking list
Your tracking list is empty




NASA's NSSDC Master Catalog

Two Line Element Set (TLE):
1 13163U 82040D   19078.36656229 -.00000024 +00000-0 -52179-4 0  9998
2 13163 074.0103 228.0364 0022353 076.8982 331.6187 12.50155373406990
Source of the keplerian elements: AFSPC